Waupaca, WI

6:15 AM CST on November 17, 2019 (GMT -0600)
Waupaca Municipal

Weather History for KPCZ - September, 2019

Change the Weather History Date:

Sunday, September 22, 2019

  Actual Average Record
Temperature  
Mean Temperature 68 °F -  
Max Temperature 73 °F 64 °F 92 °F (2017)
Min Temperature 61 °F 44 °F 25 °F (1974)
Cooling Degree Days 2    
Growing Degree Days 18 (Base 50)    
Moisture  
Dew Point 67 °F    
Average Humidity 91    
Maximum Humidity 96    
Minimum Humidity 82    
Precipitation  
Precipitation 0.45 in - - ()
Sea Level Pressure  
Sea Level Pressure 29.82 in    
Wind  
Wind Speed 7 mph (SW)    
Max Wind Speed 13 mph    
Max Gust Speed 18 mph    
Visibility 9 miles    
Events Rain    
Averages and records for this station are not official NWS values.
T = Trace of Precipitation, MM = Missing Value Source: NWS Daily Summary

Daily Weather History Graph

Daily Weather History Graph

Search for Another Location

Airport or City:

Astronomy

Sep. 22, 2019 Rise Set
Actual Time 6:43 AM CDT 6:53 PM CDT
Civil Twilight 6:14 AM CDT 7:22 PM CDT
Nautical Twilight 5:39 AM CDT 7:56 PM CDT
Astronomical Twilight 5:05 AM CDT 8:31 PM CDT
Moon No Moon Rise 3:03 PM CDT (9/22)
Length of Visible Light 13h 08m
Length of Day
12h 10m
Last Quarter, 44% of the Moon is Illuminated
Sep 22
Last Quarter
Sep 28
New
Oct 5
First Quarter
Oct 13
Full
Oct 21
Last Quarter

Hourly Weather History & Observations

Time (CDT) Temp. Dew Point Humidity Pressure Visibility Wind Dir Wind Speed Gust Speed Precip Events Conditions
12:15 AM 73.6 °F 71.6 °F 93% 29.88 in 7.0 mi South 8.1 mph - N/A   Overcast
12:35 AM 73.4 °F 71.8 °F 95% 29.88 in 7.0 mi South 6.9 mph - N/A   Overcast
12:55 AM 73.4 °F 72.0 °F 95% 29.88 in 7.0 mi SSW 9.2 mph - N/A   Overcast
1:15 AM 73.4 °F 71.8 °F 95% 29.89 in 7.0 mi SSW 8.1 mph - N/A   Overcast
1:35 AM 73.4 °F 72.0 °F 95% 29.88 in 10.0 mi SSW 5.8 mph - N/A   Overcast
1:55 AM 73.4 °F 72.0 °F 95% 29.87 in 10.0 mi SSW 5.8 mph - N/A   Overcast
2:15 AM 73.4 °F 72.0 °F 95% 29.87 in 10.0 mi South 5.8 mph - N/A   Overcast
2:35 AM 73.4 °F 71.8 °F 95% 29.86 in 10.0 mi SSW 8.1 mph - N/A   Overcast
2:55 AM 73.4 °F 71.8 °F 95% 29.86 in 10.0 mi SSW 6.9 mph - N/A   Overcast
3:15 AM 73.4 °F 71.6 °F 94% 29.84 in 10.0 mi SSW 5.8 mph - N/A   Overcast
3:35 AM 73.2 °F 71.6 °F 95% 29.84 in 10.0 mi South 8.1 mph - N/A   Mostly Cloudy
3:55 AM 73.0 °F 71.6 °F 95% 29.82 in 10.0 mi South 5.8 mph - N/A   Overcast
4:15 AM 73.0 °F 71.6 °F 95% 29.84 in 10.0 mi South 8.1 mph - N/A   Overcast
4:35 AM 73.0 °F 71.6 °F 95% 29.84 in 10.0 mi SSW 6.9 mph - N/A   Overcast
4:55 AM 73.0 °F 71.6 °F 95% 29.83 in 10.0 mi SSW 5.8 mph - N/A   Overcast
5:15 AM 72.9 °F 71.4 °F 95% 29.81 in 10.0 mi South 4.6 mph - N/A   Overcast
5:35 AM 72.7 °F 71.2 °F 95% 29.81 in 10.0 mi South 5.8 mph - N/A   Overcast
5:55 AM 72.7 °F 71.2 °F 95% 29.83 in 10.0 mi SSE 6.9 mph - N/A   Overcast
6:15 AM 72.7 °F 71.2 °F 95% 29.82 in 10.0 mi SSE 9.2 mph - N/A   Overcast
6:35 AM 72.7 °F 71.2 °F 95% 29.82 in 7.0 mi South 8.1 mph - N/A Rain Rain
6:55 AM 71.1 °F 69.3 °F 94% 29.83 in 4.0 mi SW 10.4 mph 16.1 mph 0.11 in Rain Rain
7:15 AM 72.0 °F 70.3 °F 95% 29.84 in 7.0 mi South 6.9 mph 17.3 mph 0.03 in Rain Light Rain
7:35 AM 71.6 °F 70.2 °F 95% 29.84 in 7.0 mi SSW 5.8 mph - 0.04 in Rain Rain
7:55 AM 71.4 °F 70.0 °F 95% 29.84 in 4.0 mi SW 5.8 mph - 0.11 in Rain Rain
8:35 AM 71.1 °F 69.8 °F 96% 29.81 in 7.0 mi Calm Calm - 0.03 in Rain Light Rain
8:55 AM 70.7 °F 69.6 °F 96% 29.80 in 7.0 mi SSE 6.9 mph - 0.05 in Rain Light Rain
9:15 AM 70.0 °F 68.9 °F 96% 29.81 in 7.0 mi SSW 5.8 mph - N/A Rain Rain
9:35 AM 69.4 °F 68.2 °F 96% 29.83 in 4.0 mi SW 8.1 mph - 0.03 in Rain Rain
9:55 AM 69.3 °F 68.2 °F 96% 29.81 in 5.0 mi West 6.9 mph - 0.08 in Rain Light Rain
10:15 AM 69.3 °F 68.0 °F 96% 29.81 in 10.0 mi WSW 6.9 mph - 0.01 in Rain Light Rain
10:35 AM 69.8 °F 68.4 °F 95% 29.80 in 10.0 mi SW 4.6 mph - 0.01 in Rain Light Rain
10:55 AM 70.2 °F 68.5 °F 95% 29.80 in 10.0 mi SW 5.8 mph - 0.01 in   Light Drizzle
11:15 AM 71.1 °F 68.5 °F 92% 29.81 in 10.0 mi WSW 10.4 mph - N/A   Mostly Cloudy
11:35 AM 70.7 °F 68.9 °F 94% 29.82 in 10.0 mi WSW 8.1 mph - N/A   Light Drizzle
11:55 AM 70.2 °F 68.5 °F 95% 29.81 in 7.0 mi WSW 5.8 mph - 0.01 in Rain Light Rain
12:15 PM 70.7 °F 68.9 °F 94% 29.81 in 10.0 mi SW 6.9 mph - N/A   Light Drizzle
12:35 PM 69.4 °F 67.3 °F 93% 29.80 in 10.0 mi WNW 6.9 mph - N/A Rain Light Rain
12:55 PM 68.2 °F 65.5 °F 91% 29.80 in 10.0 mi West 4.6 mph - 0.01 in   Overcast
1:15 PM 68.7 °F 66.0 °F 91% 29.79 in 10.0 mi South 3.5 mph - N/A   Overcast
1:35 PM 68.4 °F 65.3 °F 90% 29.80 in 10.0 mi WSW 5.8 mph - N/A   Overcast
1:55 PM 68.5 °F 65.1 °F 89% 29.80 in 10.0 mi SW 5.8 mph - N/A   Overcast
2:15 PM 68.9 °F 64.4 °F 86% 29.79 in 10.0 mi WSW 6.9 mph - N/A   Overcast
2:35 PM 69.3 °F 64.8 °F 86% 29.79 in 10.0 mi WSW 5.8 mph - N/A   Overcast
2:55 PM 69.3 °F 63.9 °F 83% 29.79 in 10.0 mi SW 6.9 mph - N/A   Overcast
3:15 PM 69.4 °F 64.8 °F 85% 29.78 in 10.0 mi South 4.6 mph - N/A Rain Light Rain
3:55 PM 70.2 °F 64.4 °F 82% 29.78 in 10.0 mi SSW 5.8 mph - N/A   Overcast
4:15 PM 69.3 °F 63.5 °F 82% 29.77 in 10.0 mi South 6.9 mph - N/A   Overcast
4:35 PM 69.3 °F 64.4 °F 84% 29.76 in 10.0 mi South 4.6 mph - N/A   Overcast
4:55 PM 69.3 °F 64.6 °F 85% 29.76 in 10.0 mi SSE 4.6 mph - N/A   Overcast
5:15 PM 69.3 °F 63.7 °F 82% 29.77 in 10.0 mi SSW 6.9 mph - N/A   Overcast
5:35 PM 69.3 °F 64.8 °F 86% 29.79 in 10.0 mi SW 5.8 mph - N/A   Overcast
5:55 PM 69.3 °F 65.1 °F 87% 29.79 in 10.0 mi WSW 4.6 mph - N/A   Overcast
6:15 PM 69.3 °F 65.8 °F 89% 29.80 in 10.0 mi SW 4.6 mph - N/A   Overcast
6:35 PM 69.1 °F 66.0 °F 90% 29.80 in 10.0 mi WSW 3.5 mph - N/A   Overcast
6:55 PM 68.9 °F 63.3 °F 82% 29.81 in 10.0 mi West 4.6 mph - N/A   Overcast
7:15 PM 68.0 °F 62.8 °F 83% 29.81 in 10.0 mi West 4.6 mph - N/A   Overcast
7:35 PM 67.5 °F 61.7 °F 82% 29.81 in 10.0 mi West 3.5 mph - N/A   Mostly Cloudy
7:55 PM 66.2 °F 61.9 °F 86% 29.81 in 10.0 mi West 3.5 mph - N/A   Scattered Clouds
8:15 PM 65.3 °F 61.7 °F 88% 29.81 in 10.0 mi Calm Calm - N/A   Scattered Clouds
8:35 PM 64.4 °F 61.0 °F 89% 29.81 in 10.0 mi West 3.5 mph - N/A   Scattered Clouds
8:55 PM 64.0 °F 61.3 °F 91% 29.81 in 10.0 mi West 4.6 mph - N/A   Clear
9:15 PM 64.0 °F 61.2 °F 90% 29.82 in 10.0 mi West 6.9 mph - N/A   Clear
9:35 PM 64.4 °F 61.2 °F 89% 29.81 in 10.0 mi WNW 3.5 mph - N/A   Clear
9:55 PM 64.4 °F 60.8 °F 88% 29.83 in 10.0 mi West 5.8 mph - N/A   Mostly Cloudy
10:15 PM 65.3 °F 60.8 °F 85% 29.83 in 10.0 mi West 8.1 mph - N/A   Overcast
10:35 PM 65.7 °F 59.9 °F 82% 29.87 in 7.0 mi West 12.7 mph 18.4 mph N/A Rain Rain
10:55 PM 64.0 °F 60.6 °F 89% 29.87 in 7.0 mi WNW 8.1 mph 16.1 mph 0.02 in Rain Rain
11:15 PM 62.4 °F 59.9 °F 91% 29.87 in 10.0 mi West 5.8 mph - 0.02 in Rain Light Rain
11:35 PM 62.2 °F 59.9 °F 92% 29.83 in 7.0 mi Calm Calm - 0.04 in Rain Light Rain
11:55 PM 61.2 °F 59.4 °F 94% 29.85 in 10.0 mi West 6.9 mph - 0.05 in Rain Light Rain